Atlantic - Newfoundland: Past 24 Hour Conditions

 

Argentia

12:30 AM NDT 21 September 2014
This table is a summary of hourly weather conditions for the past 24 hours.
Date / Time
(NDT)
Wind(knots) Conditions Visibility(km) Pressure(kPa) Air tempC) Relative humidity(%) Dew pointC)
21 September 2014
0:30 SW 24 gust 32 N/A N/A 102.1 14 78 10
20 September 2014
23:30 SW 25 gust 33 N/A N/A 102.1 14 79 10
22:30 WSW 29 gust 34 N/A N/A 102.2 14 77 10
21:30 SW 27 gust 33 N/A N/A 102.2 14 77 10
20:30 WSW 26 gust 34 N/A N/A 102.2 13 74 9
19:30 WSW 33 N/A N/A 102.3 13 71 8
18:30 WSW 29 gust 36 N/A N/A 102.2 13 74 9
17:30 WSW 31 gust 37 N/A N/A 102.2 13 73 8
16:30 SW 29 gust 35 N/A N/A 102.2 13 72 8
15:30 SW 29 gust 35 N/A N/A 102.2 14 68 8
14:30 SW 23 gust 30 N/A N/A 102.3 14 67 8
13:30 WSW 21 gust 27 N/A N/A 102.3 14 60 6
12:30 WSW 19 gust 24 N/A N/A 102.4 13 64 7
11:30 WSW 17 N/A N/A 102.4 12 67 6
10:30 W 16 N/A N/A 102.4 12 62 5
9:30 WNW 12 gust 17 N/A N/A 102.5 11 63 4
8:30 WNW 13 gust 21 N/A N/A 102.4 10 69 5
7:30 WNW 19 gust 24 N/A N/A 102.3 10 73 5
6:30 WNW 17 gust 23 N/A N/A 102.3 9 70 4
5:30 WNW 18 N/A N/A 102.2 9 69 4
4:30 WNW 16 N/A N/A 102.1 9 68 4
3:30 WNW 17 gust 24 N/A N/A 102.0 9 65 3
2:30 WNW 15 gust 24 N/A N/A 101.9 9 57 1
1:30 NW 18 gust 24 N/A N/A 101.9 9 55 0
0:30 NW 25 N/A N/A 101.7 9 55 0
 
Map of Atlantic - Newfoundland marine weather areas Southwestern Grand Banks - 44138 Banquereau - 44139 Tail of the Bank - 44140 Nickerson Bank - 44251 Northeast Burgeo Bank - 44255 Blanc-Sablon Airport Cap Whittle Chevery Natashquan Airport Heath Point Miscou Island Grand Étang Ingonish Beach North Mountain St.Paul Island J.A. Douglas McCurdy Sydney Airport Charlottetown Airport East Point North Cape Argentia Bonavista Burgeo Cape Race Corner Brook Daniel's Harbour Englee Ferolle Point La Scie Port aux Basques Rocky Harbour Sagona Island St. Anthony Airport St. John's Int'l Airport St. Lawrence Stephenville Airport Twillingate Winterland Wreckhouse Cartwright Airport Mary's Harbour Grates Cove Pool's Island Marticot Island Long Pond Îles de la Madeleine Airport
Legend: buoyBuoy land stationLand Station